Stations météo

réclame
Mon MeteoGroup
Ile Rousse, France (7753): Température de l'air & dewpoint: 18.01.2020 13:00:00 - 24.01.2020 13:00:00 (CET)Ile Rousse, France (7753): Vitesse du vent & gusts: 18.01.2020 13:00:00 - 24.01.2020 13:00:00 (CET)Ile Rousse, France (7753): Direction du vent: 18.01.2020 13:00:00 - 24.01.2020 13:00:00 (CET)Ile Rousse, France (7753): reduced air pressure: 18.01.2020 13:00:00 - 24.01.2020 13:00:00 (CET)Ile Rousse, France (7753): visibility: 18.01.2020 13:00:00 - 24.01.2020 13:00:00 (CET)Ile Rousse, France (7753): Quantités de précipitations: 18.01.2020 13:00:00 - 24.01.2020 13:00:00 (CET)
Date & Time tt [°C] td [°C] ff [km/h] ff [knt] fx [km/h] fx [knt] dd ppp [hPa] vv [km] rr [mm]
24.01.2020 13:00:00 - - - - - - - - - -
24.01.2020 12:00:00 13,6 8,4 10 5 13 7 W 1022,9 - 0,0
24.01.2020 11:00:00 14,4 7,4 3 2 12 6 SSE 1023,1 - 0,0
24.01.2020 10:00:00 13,0 7,0 9 5 16 9 WSW 1022,7 - 0,0
24.01.2020 09:00:00 11,8 6,9 8 4 12 6 WSW 1022,5 - 0,0
24.01.2020 08:00:00 12,8 7,0 5 3 9 5 NE 1022,7 - 0,0
24.01.2020 07:00:00 12,5 7,2 3 1 8 5 E 1022,8 15 0,0
24.01.2020 06:00:00 12,9 5,3 7 4 10 5 S 1023,0 - 0,0
24.01.2020 05:00:00 12,5 7,6 8 5 11 6 ESE 1023,1 - 0,0
24.01.2020 04:00:00 11,6 7,3 7 4 10 5 E 1023,5 15 0,0
24.01.2020 03:00:00 12,1 9,5 6 3 9 5 WSW 1024,0 - 0,0
24.01.2020 02:00:00 12,1 9,8 3 2 7 4 WNW 1024,1 - 0,0
24.01.2020 01:00:00 12,2 9,9 3 1 8 5 W 1024,6 - 0,0
24.01.2020 00:00:00 12,3 10,2 0 0 9 5 N 1025,1 - 0,0
23.01.2020 23:00:00 12,4 8,9 5 3 16 8 SW 1025,1 - 0,0
23.01.2020 22:00:00 13,0 7,2 8 4 12 6 W 1025,1 10 0,0
23.01.2020 21:00:00 12,9 7,6 9 5 11 6 W 1025,0 - 0,0
23.01.2020 20:00:00 13,6 6,9 6 4 12 6 W 1024,7 - 0,0
23.01.2020 19:00:00 13,7 7,0 8 4 12 7 SE 1024,6 15 0,0
23.01.2020 18:00:00 13,8 7,3 9 5 11 6 SSE 1024,6 - 0,0
23.01.2020 17:00:00 14,1 7,2 8 4 9 5 ESE 1024,5 - 0,0
23.01.2020 16:00:00 15,1 7,1 2 1 7 4 WNW 1024,6 - 0,0
23.01.2020 15:00:00 15,2 8,0 5 3 16 8 WNW 1024,4 - 0,0
23.01.2020 14:00:00 15,1 7,9 6 3 11 6 N 1025,0 - 0,0
23.01.2020 13:00:00 15,0 8,0 5 3 11 6 WSW 1025,9 15 0,0
23.01.2020 12:00:00 15,0 8,0 6 4 12 6 W 1026,7 - 0,0
23.01.2020 11:00:00 14,3 7,1 6 3 8 4 N 1026,9 - 0,0
23.01.2020 10:00:00 14,5 6,8 5 3 9 5 W 1026,6 - 0,0
23.01.2020 09:00:00 13,5 6,1 3 2 12 6 E 1026,4 - 0,0
23.01.2020 08:00:00 12,9 5,3 8 5 12 6 ESE 1026,0 - 0,0
23.01.2020 07:00:00 13,6 6,0 5 3 12 6 NNE 1025,8 - 0,0
23.01.2020 06:00:00 13,8 5,7 7 4 21 11 SSW 1025,6 - 0,0
23.01.2020 05:00:00 13,3 5,0 10 6 28 15 SSW 1025,1 - 0,0
23.01.2020 04:00:00 13,4 5,3 21 12 29 15 SW 1024,4 15 0,0
23.01.2020 03:00:00 12,8 3,7 22 12 29 16 SW 1024,1 - 0,0
23.01.2020 02:00:00 13,2 3,8 5 3 10 6 NW 1024,2 - 0,0
23.01.2020 01:00:00 13,2 3,5 7 4 10 6 ENE 1025,7 - 0,0
23.01.2020 00:00:00 13,7 3,2 2 1 10 5 NE 1026,2 - 0,0
22.01.2020 23:00:00 13,4 3,2 10 5 14 8 W 1025,9 - 0,0
22.01.2020 22:00:00 14,2 3,6 6 3 9 5 W 1025,4 15 0,0
22.01.2020 21:00:00 14,5 3,3 4 2 10 5 NE 1025,4 - 0,0
22.01.2020 20:00:00 14,7 2,6 3 1 7 4 NNE 1025,7 - 0,0
22.01.2020 19:00:00 14,4 2,9 4 2 6 4 ESE 1025,7 12 0,0
22.01.2020 18:00:00 15,0 3,5 4 2 10 6 W 1025,8 - 0,0
22.01.2020 17:00:00 14,6 3,1 8 4 11 6 W 1025,7 - 0,0
22.01.2020 16:00:00 14,9 4,3 8 4 11 6 W 1026,2 12 0,0
22.01.2020 15:00:00 17,0 6,2 8 5 14 8 WSW 1026,5 - 0,0
22.01.2020 14:00:00 16,1 6,2 10 5 14 7 WSW 1027,0 - 0,0
22.01.2020 13:00:00 17,0 8,2 3 2 11 6 WSW 1027,9 12 0,0
22.01.2020 12:00:00 17,0 7,3 2 1 8 5 W 1028,6 - 0,0
22.01.2020 11:00:00 16,9 7,3 4 2 6 4 E 1029,1 - 0,0
22.01.2020 10:00:00 15,7 6,4 3 2 6 3 ESE 1028,9 10 0,0
22.01.2020 09:00:00 13,9 4,2 3 2 9 5 E 1029,0 - 0,0
22.01.2020 08:00:00 12,9 3,8 4 2 6 3 SSW 1029,2 - 0,0
22.01.2020 07:00:00 12,5 4,2 0 0 8 4 N 1029,1 - 0,0
22.01.2020 06:00:00 12,4 6,9 4 2 8 4 NW 1029,3 - 0,0
22.01.2020 05:00:00 13,1 2,6 3 2 5 3 N 1029,8 - 0,0
22.01.2020 04:00:00 13,4 2,9 2 1 8 5 N 1030,0 15 0,0
22.01.2020 03:00:00 13,0 2,8 5 3 11 6 W 1030,7 - 0,0
22.01.2020 02:00:00 12,9 3,8 4 2 11 6 ENE 1031,0 - 0,0
22.01.2020 01:00:00 12,8 2,9 9 5 10 5 ESE 1031,5 - 0,0
22.01.2020 00:00:00 13,0 2,8 4 2 13 7 WSW 1031,7 - 0,0
21.01.2020 23:00:00 12,7 3,4 9 5 14 7 W 1031,4 - 0,0
21.01.2020 22:00:00 12,4 3,6 8 4 16 9 W 1031,2 15 0,0
21.01.2020 21:00:00 12,2 4,4 9 5 26 14 WSW 1030,7 - 0,0
21.01.2020 20:00:00 12,6 4,0 4 2 24 13 ENE 1030,5 - 0,0
21.01.2020 19:00:00 12,4 4,6 16 9 51 28 SE 1030,3 - 0,0
21.01.2020 18:00:00 11,7 5,8 27 14 46 25 E 1030,5 - 0,0
21.01.2020 17:00:00 13,1 4,8 4 2 20 11 NNE 1031,0 - 0,0
21.01.2020 16:00:00 13,3 5,2 9 5 49 26 S 1031,2 - 0,0
21.01.2020 15:00:00 13,5 5,1 18 10 45 24 E 1031,4 - 0,0
21.01.2020 14:00:00 13,9 5,5 13 7 50 27 ENE 1031,7 - 0,0
21.01.2020 13:00:00 14,1 3,8 11 6 76 41 WSW 1032,2 15 0,0
21.01.2020 12:00:00 12,4 4,8 55 30 94 51 E 1031,5 - 0,0
21.01.2020 11:00:00 11,3 4,3 69 37 100 54 E 1032,0 - 0,0
21.01.2020 10:00:00 10,8 3,8 66 35 103 56 E 1032,8 15 0,0
21.01.2020 09:00:00 10,4 3,4 68 37 99 53 E 1033,3 - 0,0
21.01.2020 08:00:00 10,2 3,0 74 40 106 57 E 1032,8 - 0,0
21.01.2020 07:00:00 10,1 3,1 73 39 102 55 E 1032,4 15 0,0
21.01.2020 06:00:00 10,2 3,2 70 38 108 58 E 1032,7 - 0,0
21.01.2020 05:00:00 10,1 3,4 71 39 104 56 E 1032,5 - 0,0
21.01.2020 04:00:00 9,8 3,3 62 33 87 47 ESE 1033,8 15 0,0
21.01.2020 03:00:00 9,8 2,9 61 33 92 50 E 1034,6 - 0,0
21.01.2020 02:00:00 9,5 3,5 68 37 97 52 E 1034,2 - 0,0
21.01.2020 01:00:00 9,8 2,9 64 34 95 52 E 1034,2 - 0,0
21.01.2020 00:00:00 9,6 2,9 48 26 68 37 E 1035,2 - 0,0
20.01.2020 23:00:00 9,6 3,3 54 29 75 40 E 1034,6 - 0,0
20.01.2020 22:00:00 9,4 3,4 55 30 75 41 E 1034,0 - 0,0
20.01.2020 21:00:00 9,1 3,3 54 29 72 39 E 1034,2 - 0,0
20.01.2020 20:00:00 9,4 3,1 53 29 72 39 E 1033,9 - 0,0
20.01.2020 19:00:00 9,4 3,6 41 22 64 34 ESE 1033,9 15 0,0
20.01.2020 18:00:00 9,4 3,4 45 24 63 34 ESE 1033,1 - 0,0
20.01.2020 17:00:00 9,4 2,7 45 25 62 34 E 1032,6 - 0,0
20.01.2020 16:00:00 9,7 2,5 50 27 74 40 E 1032,7 - 0,0
20.01.2020 15:00:00 9,8 2,9 51 28 79 43 E 1032,4 - 0,0
20.01.2020 14:00:00 9,8 2,6 59 32 85 46 E 1032,1 - 0,0
20.01.2020 13:00:00 9,9 3,0 59 32 86 47 E 1032,2 15 0,0
20.01.2020 12:00:00 9,8 2,2 61 33 87 47 E 1031,8 - 0,0
20.01.2020 11:00:00 9,7 2,3 64 35 90 49 E 1031,4 - 0,0
20.01.2020 10:00:00 9,0 2,8 66 35 89 48 E 1030,6 15 0,0
20.01.2020 09:00:00 8,5 3,5 64 34 83 45 E 1030,2 - 0,0
20.01.2020 08:00:00 8,9 3,3 55 30 85 46 E 1029,8 - 0,0
20.01.2020 07:00:00 8,9 2,7 54 29 79 43 E 1029,3 15 0,0
20.01.2020 06:00:00 8,6 2,2 57 31 76 41 E 1028,5 - 0,0
20.01.2020 05:00:00 8,7 2,3 58 32 79 42 E 1028,4 - 0,0
20.01.2020 04:00:00 8,6 3,0 54 29 85 46 E 1027,8 15 0,0
20.01.2020 03:00:00 9,3 3,3 62 34 94 51 E 1027,6 - 0,0
20.01.2020 02:00:00 9,2 3,8 50 27 77 42 E 1027,3 - 0,0
20.01.2020 01:00:00 9,7 3,6 57 31 75 41 E 1026,8 - 0,0
20.01.2020 00:00:00 10,1 4,2 47 26 70 38 E 1026,2 - 0,0
19.01.2020 23:00:00 10,0 3,9 47 25 67 36 E 1025,5 - 0,0
19.01.2020 22:00:00 9,8 4,8 47 26 64 34 E 1025,1 - 0,0
19.01.2020 21:00:00 9,1 5,3 40 22 60 33 E 1024,9 - 0,0
19.01.2020 20:00:00 8,3 5,6 32 18 49 26 E 1024,7 - 0,4
19.01.2020 19:00:00 8,9 4,9 32 17 47 25 E 1024,4 12 0,0
19.01.2020 18:00:00 10,1 3,8 27 15 49 26 E 1024,3 - 0,0
19.01.2020 17:00:00 10,4 3,7 37 20 56 30 E 1023,6 - 0,0
19.01.2020 16:00:00 10,7 3,7 39 21 54 29 E 1022,9 - 0,0
19.01.2020 15:00:00 10,7 4,6 37 20 50 27 E 1022,3 - 0,0
19.01.2020 14:00:00 10,8 4,5 38 21 51 28 E 1021,7 - 0,0
19.01.2020 13:00:00 11,5 4,2 35 19 47 25 E 1021,8 20 0,0
19.01.2020 12:00:00 10,8 3,3 29 16 45 24 E 1022,2 - 0,0
19.01.2020 11:00:00 10,1 2,7 34 18 54 29 E 1022,5 - 0,0
19.01.2020 10:00:00 9,4 3,6 37 20 51 28 E 1022,3 20 0,0
19.01.2020 09:00:00 8,6 1,3 29 16 37 20 E 1021,8 - 0,0
19.01.2020 08:00:00 8,0 1,8 21 11 27 14 E 1021,9 - 0,0
19.01.2020 07:00:00 8,5 2,7 18 10 21 12 E 1021,7 - 0,0
19.01.2020 06:00:00 9,2 3,2 11 6 14 8 ESE 1021,6 - 0,0
19.01.2020 05:00:00 9,2 2,5 8 4 9 5 ESE 1021,9 - 0,0
19.01.2020 04:00:00 9,5 2,6 3 2 8 4 SW 1022,2 20 0,0
19.01.2020 03:00:00 9,3 1,7 2 1 15 8 WNW 1022,5 - 0,0
19.01.2020 02:00:00 9,5 1,6 7 4 11 6 SW 1022,5 - 0,0
19.01.2020 01:00:00 9,3 1,2 7 4 9 5 SSE 1022,7 - 0,0
19.01.2020 00:00:00 9,3 1,2 6 4 13 7 SSE 1022,7 - 0,0
18.01.2020 23:00:00 9,0 1,6 4 2 7 4 SE 1022,7 - 0,0
18.01.2020 22:00:00 9,6 -1,5 3 1 13 7 W 1022,6 - 0,0
18.01.2020 21:00:00 10,0 -0,5 9 5 34 18 SW 1022,4 - 0,0
18.01.2020 20:00:00 9,6 1,0 21 11 46 25 WSW 1022,0 - 0,0
18.01.2020 19:00:00 9,8 2,6 31 17 59 32 WSW 1021,7 - 0,0
18.01.2020 18:00:00 9,8 3,7 31 17 63 34 SW 1021,4 - 0,0
18.01.2020 17:00:00 10,3 4,2 35 19 63 34 WSW 1021,0 - 0,0
18.01.2020 16:00:00 10,6 5,6 41 22 71 38 WSW 1021,1 - 0,0
18.01.2020 15:00:00 11,5 5,1 46 25 74 40 WSW 1020,9 - 0,0
18.01.2020 14:00:00 12,4 5,8 42 23 68 37 WSW 1020,9 - 0,0
18.01.2020 13:00:00 11,9 4,8 42 23 69 37 W 1021,7 15 0,0

tt = Température de l'air
td = dewpoint
ff = Vitesse du vent
fx = gusts
dd = Direction du vent
ppp = reduced air pressure
vv = visibility
rr = Quantités de précipitations

stations d'obs. à proximité